Temp
9 10 10 10 10 9 10 9 9 10 9 9 9 9 9 9 9 9 9 9 9 9 9 9 9 9 9 9 9 9 8 7 6 6 7 7 6 6 7 6 6 5 5 5 4
10 10 10 10 10 10 9 9 9 9 9 9 9 9 9 9 9 8 9 9 9 9 9 9 9 9 9 9 9 9 8 7 7 7 7 6 6 6 6 6 6 5 5 5 4
9 10 10 10 10 10 9 9 9 9 8 8 9 8 9 9 7 8 9 9 9 9 9 9 8 8 9 8 9 9 8 7 7 6 6 6 6 6 6 6 5 5 5 5 4
9 9 10 10 10 9 9 9 9 8 8 8 8 8 8 8 8 8 9 9 9 9 9 8 7 7 9 9 8 9 8 7 7 6 6 6 6 5 5 5 5 5 4 4 4
10 10 10 10 10 9 9 9 9 8 8 8 8 8 8 8 8 8 8 9 9 9 9 7 7 8 8 8 7 8 8 7 6 6 6 6 5 5 5 5 4 4 3 3 3
10 10 10 10 10 9 9 9 8 8 8 8 8 8 8 8 8 8 8 8 8 8 8 8 8 8 9 8 8 7 7 7 6 6 6 5 5 4 5 4 3 3 3 3 2
10 10 10 10 9 9 8 8 8 8 7 7 7 8 7 8 8 8 8 8 8 8 8 8 8 8 8 8 7 7 7 6 6 5 5 4 5 4 3 3 2 2 3 2 3
10 10 10 10 9 9 8 8 8 8 7 7 7 7 8 7 8 8 8 8 8 8 8 8 8 8 8 7 8 8 6 5 5 5 5 4 3 3 3 3 2 2 2 1 1
10 10 10 10 9 8 8 8 8 8 8 7 8 7 8 7 8 8 8 8 8 8 8 8 8 7 7 7 6 6 7 6 6 6 4 4 3 5 4 3 2 1 -0 -0 -1
10 9 9 9 9 8 8 8 8 8 8 7 8 8 8 8 8 8 8 8 9 8 8 8 7 7 6 7 7 6 7 7 6 6 5 3 3 4 3 2 1 -1 -2 -2 -1
9 9 9 9 8 8 8 7 8 8 8 9 8 8 8 9 8 8 8 8 8 7 7 7 7 8 7 7 7 7 6 6 6 6 5 4 3 3 2 1 0 -1 -1 -2 -3
8 9 8 8 8 8 8 9 8 9 8 8 8 8 8 8 9 9 8 8 7 7 7 8 8 7 7 7 7 6 6 6 6 5 4 3 3 3 3 1 1 -0 -2 -3 -3
8 8 8 8 8 8 9 8 8 9 8 8 8 8 8 8 8 8 8 8 7 7 7 7 8 7 7 7 7 6 6 6 5 4 4 3 4 3 2 2 0 -1 -1 -4 -5
8 8 8 7 8 8 8 8 8 9 8 8 8 8 8 8 8 8 8 8 8 8 7 7 7 7 6 7 6 6 6 6 5 3 3 3 2 1 1 0 -1 -3 -6 -6 -6
8 8 8 8 8 8 8 8 9 8 10 8 8 8 8 8 8 8 8 8 8 8 7 7 7 7 7 7 6 6 6 6 5 4 2 3 1 0 -0 -2 -4 -6 -5 -5 -4
8 8 8 8 8 8 8 8 9 9 7 8 8 8 8 8 8 8 8 8 8 7 7 7 7 7 7 6 6 6 7 6 5 4 3 4 3 -0 -1 -2 -4 -4 -3 -3 -5
8 8 8 8 8 8 8 9 9 9 8 8 8 8 7 8 8 8 8 8 8 7 6 7 7 7 7 6 6 6 6 6 4 2 4 4 2 1 -0 -1 -2 -2 -3 -4 -6
8 8 8 8 8 8 8 9 9 7 8 8 8 7 7 7 7 7 6 7 7 7 6 6 6 6 6 6 6 5 4 4 3 3 4 4 3 0 1 -0 -2 -3 -5 -6 -7
8 8 9 9 8 8 8 8 8 7 8 8 7 7 7 7 7 7 6 7 7 7 7 6 6 6 6 6 5 5 4 3 2 4 4 5 1 0 -0 -2 -3 -4 -5 -6 -6
9 8 9 9 9 8 8 8 9 8 8 7 7 7 7 7 6 6 6 6 6 6 6 6 6 6 6 6 5 4 3 3 3 1 1 5 3 1 -1 -2 -3 -5 -5 -6 -7
9 9 9 9 8 8 8 9 9 8 8 8 7 7 7 7 7 6 6 6 6 6 6 6 6 6 5 6 5 4 3 2 2 2 1 -1 2 1 -1 -2 -4 -4 -5 -6 -7
8 8 9 8 8 9 9 9 8 8 8 8 7 7 7 7 7 6 6 6 6 6 6 6 5 5 5 5 5 4 3 2 1 2 1 1 1 0 -2 -3 -5 -6 -6 -6 -8
8 8 9 8 9 9 9 9 8 8 8 8 7 7 7 7 7 6 6 6 6 6 6 5 5 5 6 5 5 5 4 3 1 0 1 -0 1 -0 -2 -6 -6 -6 -5 -7 -8
8 8 8 8 8 9 9 9 8 8 8 7 7 7 7 7 7 7 6 6 6 6 6 5 5 5 5 5 4 4 3 3 1 -1 1 2 1 -1 -3 -3 -4 -5 -6 -8 -9
8 8 8 8 8 9 8 8 8 8 8 7 7 7 7 7 7 7 7 6 6 6 6 5 5 5 5 5 5 5 4 2 2 2 -1 2 0 -2 -2 -3 -5 -6 -7 -8 -9
7 8 8 8 8 8 8 8 8 8 8 7 7 7 7 7 7 7 7 7 6 6 5 5 5 5 6 6 5 5 4 4 3 3 2 1 -1 -2 -3 -4 -5 -6 -7 -8 -9
7 7 8 8 8 8 8 8 8 8 7 7 7 7 7 7 7 7 7 7 6 6 6 5 5 4 5 4 4 5 5 3 3 3 2 0 -1 -2 -3 -5 -5 -7 -8 -9 -9
Height
3157 3159 3160 3160 3161 3163 3164 3165 3166 3167 3168 3169 3170 3171 3172 3173 3174 3175 3175 3177 3178 3179 3180 3181 3182 3184 3186 3187 3188 3190 3190 3191 3192 3192 3192 3194 3195 3193 3192 3192 3191 3191 3190 3190 3189
3160 3162 3163 3163 3164 3165 3166 3167 3169 3169 3170 3172 3173 3174 3174 3175 3174 3177 3178 3178 3180 3181 3183 3183 3184 3186 3187 3187 3188 3188 3189 3191 3192 3193 3194 3194 3193 3192 3192 3192 3191 3190 3190 3190 3189
3163 3164 3165 3166 3166 3167 3168 3169 3170 3172 3173 3174 3175 3176 3176 3176 3178 3179 3180 3181 3182 3183 3185 3185 3185 3186 3186 3187 3188 3189 3190 3191 3192 3193 3193 3192 3192 3193 3194 3192 3191 3191 3190 3189 3186
3165 3166 3167 3168 3169 3170 3170 3171 3173 3174 3175 3176 3177 3178 3178 3179 3181 3181 3182 3183 3183 3184 3185 3187 3187 3187 3188 3188 3189 3190 3192 3193 3193 3194 3194 3195 3195 3194 3192 3192 3191 3189 3187 3184 3182
3167 3169 3169 3170 3171 3171 3172 3173 3174 3175 3176 3177 3178 3179 3180 3182 3182 3184 3184 3184 3185 3186 3186 3187 3187 3187 3189 3190 3191 3192 3193 3193 3194 3195 3195 3194 3194 3193 3192 3191 3189 3187 3184 3182 3180
3169 3170 3171 3172 3173 3173 3174 3175 3176 3177 3178 3179 3180 3181 3181 3186 3185 3185 3186 3187 3187 3188 3188 3187 3189 3189 3190 3190 3192 3193 3193 3194 3194 3195 3195 3193 3193 3192 3191 3188 3186 3183 3181 3179 3175
3169 3171 3172 3173 3174 3175 3176 3177 3179 3180 3181 3182 3183 3183 3184 3187 3186 3187 3187 3188 3189 3190 3190 3189 3190 3190 3191 3192 3194 3195 3195 3195 3195 3194 3194 3191 3188 3189 3187 3185 3182 3179 3177 3174 3171
3170 3172 3173 3175 3176 3176 3178 3180 3181 3182 3183 3184 3185 3185 3186 3188 3189 3189 3189 3189 3190 3191 3191 3191 3192 3192 3193 3195 3196 3195 3196 3195 3194 3193 3193 3191 3186 3186 3184 3182 3181 3179 3175 3172 3168
3171 3173 3175 3176 3177 3179 3181 3182 3183 3184 3186 3187 3187 3188 3190 3190 3191 3191 3192 3192 3193 3193 3193 3193 3194 3195 3196 3196 3195 3196 3196 3196 3193 3193 3191 3190 3187 3184 3183 3182 3180 3177 3172 3170 3166
3172 3174 3176 3178 3180 3182 3184 3186 3187 3188 3189 3189 3190 3194 3193 3193 3192 3193 3194 3194 3194 3195 3195 3196 3195 3195 3197 3199 3198 3198 3198 3197 3193 3193 3191 3190 3184 3182 3181 3180 3177 3173 3169 3166 3162
3173 3175 3177 3180 3181 3184 3186 3188 3193 3193 3192 3191 3192 3192 3194 3194 3195 3195 3196 3196 3196 3197 3197 3197 3198 3196 3197 3197 3197 3197 3197 3196 3193 3193 3190 3187 3182 3177 3178 3176 3173 3170 3167 3164 3160
3174 3177 3179 3182 3184 3187 3189 3189 3192 3195 3194 3194 3195 3195 3195 3196 3196 3197 3199 3198 3198 3199 3198 3199 3198 3198 3197 3196 3196 3196 3196 3194 3191 3187 3187 3182 3179 3173 3174 3173 3170 3168 3166 3162 3157
3175 3178 3181 3185 3187 3190 3191 3192 3195 3196 3197 3198 3198 3198 3198 3199 3198 3199 3200 3199 3199 3199 3198 3199 3199 3198 3197 3196 3195 3195 3194 3192 3191 3184 3180 3179 3177 3173 3172 3169 3167 3165 3162 3159 3154
3178 3181 3184 3186 3191 3192 3194 3196 3197 3197 3200 3202 3200 3200 3201 3200 3201 3200 3200 3201 3200 3200 3199 3199 3199 3198 3197 3196 3195 3193 3192 3189 3186 3184 3183 3180 3178 3171 3168 3166 3164 3163 3160 3156 3152
3180 3183 3185 3188 3190 3194 3197 3198 3199 3199 3200 3204 3202 3202 3201 3203 3203 3202 3201 3200 3200 3200 3201 3200 3199 3198 3198 3196 3195 3194 3190 3187 3184 3182 3182 3177 3178 3168 3166 3165 3164 3161 3158 3155 3150
3182 3185 3188 3191 3194 3196 3197 3199 3200 3202 3203 3203 3203 3203 3203 3203 3203 3202 3202 3201 3201 3200 3200 3200 3199 3199 3198 3196 3194 3192 3187 3183 3181 3181 3180 3174 3177 3170 3170 3167 3162 3160 3156 3151 3147
3184 3188 3190 3192 3195 3197 3198 3200 3201 3201 3205 3205 3204 3203 3204 3204 3204 3203 3203 3202 3201 3200 3200 3199 3199 3198 3198 3195 3193 3192 3187 3184 3183 3182 3178 3175 3175 3169 3165 3164 3162 3157 3153 3147 3141
3186 3189 3191 3194 3196 3198 3199 3201 3201 3203 3203 3204 3204 3205 3205 3204 3204 3204 3203 3203 3203 3201 3200 3201 3198 3198 3198 3197 3195 3192 3191 3191 3191 3184 3178 3174 3171 3166 3163 3161 3157 3154 3148 3144 3138
3188 3190 3192 3195 3197 3199 3201 3201 3202 3203 3204 3205 3206 3206 3206 3205 3206 3205 3204 3204 3203 3202 3202 3200 3200 3198 3197 3196 3196 3194 3192 3192 3188 3182 3179 3170 3168 3163 3160 3158 3153 3149 3144 3140 3134
3188 3190 3193 3196 3198 3200 3202 3201 3202 3204 3205 3206 3207 3207 3207 3206 3206 3206 3205 3205 3204 3203 3202 3201 3199 3198 3198 3196 3196 3194 3193 3190 3189 3185 3180 3169 3165 3160 3158 3155 3152 3148 3141 3135 3128
3189 3192 3194 3197 3199 3201 3201 3203 3204 3205 3206 3207 3207 3207 3207 3206 3206 3206 3206 3206 3204 3204 3202 3201 3200 3200 3197 3196 3194 3193 3191 3190 3189 3186 3183 3174 3163 3159 3157 3153 3148 3142 3136 3130 3124
3190 3192 3195 3197 3200 3200 3202 3204 3205 3206 3206 3207 3207 3207 3207 3207 3206 3206 3206 3205 3204 3203 3202 3201 3199 3198 3197 3195 3193 3191 3188 3187 3186 3184 3180 3176 3163 3158 3154 3147 3141 3137 3133 3128 3122
3190 3193 3195 3197 3200 3201 3203 3205 3206 3207 3208 3207 3207 3207 3207 3207 3207 3206 3206 3205 3204 3203 3202 3201 3199 3198 3194 3195 3191 3188 3185 3184 3183 3181 3176 3176 3162 3156 3151 3145 3140 3136 3131 3128 3120
3190 3193 3196 3197 3200 3202 3204 3205 3207 3208 3208 3208 3207 3207 3207 3207 3206 3206 3205 3205 3203 3202 3201 3201 3199 3199 3197 3194 3189 3185 3182 3180 3179 3178 3173 3170 3163 3156 3151 3145 3141 3136 3130 3123 3116
3189 3192 3194 3196 3199 3201 3203 3205 3206 3207 3208 3207 3207 3207 3207 3206 3205 3205 3204 3204 3202 3201 3200 3199 3197 3195 3193 3190 3186 3182 3179 3177 3173 3172 3169 3162 3159 3154 3149 3144 3138 3131 3126 3120 3114
3188 3191 3193 3195 3198 3200 3202 3204 3206 3206 3207 3207 3207 3206 3206 3206 3205 3204 3203 3202 3202 3200 3198 3196 3194 3191 3188 3185 3182 3176 3173 3172 3170 3167 3161 3157 3154 3148 3142 3139 3134 3128 3122 3116 3110
3186 3189 3192 3194 3196 3199 3201 3203 3205 3206 3207 3206 3206 3206 3206 3205 3204 3203 3203 3201 3200 3198 3196 3194 3191 3189 3184 3181 3177 3171 3169 3167 3165 3162 3158 3152 3149 3145 3139 3135 3129 3123 3117 3111 3106
Wind_Speed
16 15 14 13 12 11 11 10 11 11 11 13 14 14 13 15 14 13 14 15 14 15 15 15 14 10 12 8 15 13 12 13 9 3 3 1 4 4 4 2 4 6 8 10 11
15 14 14 13 12 11 10 10 10 11 11 12 14 14 13 15 19 10 12 12 12 12 9 12 12 8 8 4 5 11 12 7 6 2 3 3 2 2 3 6 6 7 9 11 13
13 13 13 13 11 10 10 10 10 11 12 13 15 15 15 16 14 10 10 10 10 9 10 7 5 5 5 4 6 7 4 9 6 5 4 2 2 5 8 9 11 11 13 16 18
10 10 10 10 10 9 10 10 11 12 14 15 15 12 9 7 9 12 11 10 10 9 11 8 6 3 0 5 3 5 6 5 4 2 1 3 7 8 12 13 13 14 17 18 21
10 8 7 8 8 9 10 10 11 12 13 10 10 10 13 14 15 12 10 10 10 10 8 13 3 4 3 6 4 4 4 3 1 1 3 6 8 11 12 13 15 18 19 20 22
10 7 6 7 8 8 10 11 14 15 15 14 15 13 14 5 11 11 10 8 7 8 6 5 4 4 5 5 5 5 3 1 1 3 6 10 13 13 13 16 17 18 20 22 24
9 7 6 7 8 9 10 11 13 14 13 11 10 9 6 8 10 9 8 7 5 5 4 3 4 3 5 4 7 4 4 2 2 7 10 13 16 14 15 18 19 23 26 27 27
9 7 8 8 9 10 11 12 13 13 13 14 12 13 11 9 8 8 7 8 7 7 7 6 4 5 6 8 7 7 7 5 11 15 14 15 19 20 21 22 23 23 25 26 28
9 9 10 10 11 12 14 15 15 15 14 13 16 11 10 11 10 11 11 8 9 9 8 7 7 7 9 9 7 4 7 4 12 12 13 15 19 25 24 23 22 20 23 24 27
11 11 11 11 14 16 17 18 16 14 12 12 13 10 10 13 12 11 10 9 8 9 11 9 13 14 7 6 4 7 8 8 10 14 19 13 24 27 25 19 17 17 20 23 29
12 13 13 14 18 20 18 18 10 6 3 10 11 13 11 11 9 8 7 7 8 10 3 8 5 5 3 3 5 6 5 8 15 16 18 19 23 25 18 15 15 17 22 25 28
15 15 17 17 19 16 16 14 11 15 14 13 11 8 9 7 9 7 4 10 9 3 6 5 4 3 3 4 3 2 5 11 17 21 21 19 19 24 20 16 18 20 21 23 27
17 18 19 19 19 16 16 18 14 11 14 12 9 6 6 6 8 6 6 6 8 5 2 4 3 3 5 7 6 4 9 13 19 24 21 9 13 19 18 18 18 18 20 23 30
20 21 21 20 19 20 19 16 8 7 5 8 5 4 5 6 6 5 6 5 3 2 2 2 3 4 8 10 8 2 10 19 18 12 7 13 6 14 18 17 16 16 19 25 30
21 21 22 22 25 19 13 8 5 4 4 4 6 5 4 5 4 6 5 5 6 4 2 3 5 5 6 10 8 8 15 15 14 9 11 16 6 7 15 14 13 11 22 26 34
20 21 21 23 18 10 7 3 5 1 3 2 3 5 8 6 6 5 6 7 7 6 6 6 5 5 6 10 9 14 20 18 19 7 6 6 3 10 9 6 13 19 24 30 37
19 19 24 20 12 9 6 5 3 3 4 3 4 4 4 4 4 4 6 8 8 4 6 10 9 6 9 14 11 14 18 3 3 3 2 4 8 10 17 17 17 20 26 33 40
18 20 22 14 8 6 7 6 3 4 2 4 4 5 5 5 5 5 7 6 8 7 2 2 6 9 10 12 9 13 14 4 4 4 10 15 4 8 17 17 18 23 30 36 42
17 18 16 11 6 4 5 5 4 5 6 7 5 6 6 6 4 5 5 5 8 9 3 4 4 7 10 11 8 9 9 7 6 10 11 3 8 8 13 17 22 26 31 38 45
16 16 14 11 9 6 6 1 4 5 7 5 3 3 1 5 4 3 5 5 7 8 6 6 4 6 12 8 7 10 10 6 5 5 5 9 9 9 17 19 24 30 37 42 44
16 16 16 13 10 7 5 4 8 7 5 3 5 3 2 3 2 2 3 4 7 8 6 7 4 8 11 7 10 11 6 5 8 7 3 5 6 19 22 22 31 34 40 43 43
16 14 15 14 10 7 6 6 6 6 5 4 4 3 3 3 3 2 4 6 6 8 8 7 3 6 11 12 9 12 12 11 2 2 9 13 13 16 23 32 30 34 39 44 41
15 12 16 14 9 7 6 5 4 3 2 3 3 4 4 4 2 4 6 6 8 8 8 7 6 6 7 6 12 21 22 16 12 13 16 4 14 26 27 19 30 36 44 41 37
15 11 15 14 8 7 6 5 4 3 2 2 4 4 4 4 4 4 7 6 8 9 8 9 8 7 9 13 22 23 20 21 16 8 10 18 19 23 26 34 38 38 40 36 34
17 12 14 15 12 10 8 5 5 4 2 1 2 2 4 4 4 6 8 9 9 8 9 10 12 14 15 21 19 22 24 18 21 20 18 29 29 30 33 33 33 38 35 31 31
19 13 13 6 13 11 10 6 5 3 2 1 0 1 3 4 6 8 9 10 10 11 13 13 10 17 22 19 21 29 21 11 19 19 26 25 26 31 28 31 34 32 28 28 27
21 16 12 13 11 13 12 8 6 5 4 2 2 2 3 5 6 8 10 11 13 13 13 12 12 15 14 18 25 15 14 21 18 22 25 27 28 26 30 29 30 24 25 27 23
Wind_Direction
110 110 109 105 106 105 105 109 107 109 104 100 99 102 107 106 103 104 104 131 131 134 125 123 117 126 116 116 106 109 117 118 114 245 197 61 22 25 360 322 285 283 277 285 292
114 111 105 104 100 101 103 112 119 114 105 102 102 104 102 109 90 95 106 115 156 149 151 129 124 138 144 138 143 171 168 136 162 161 80 96 48 2 344 325 306 295 292 295 295
121 113 104 97 98 99 101 110 117 117 110 107 105 109 99 88 85 96 104 117 123 149 186 180 160 212 234 225 178 174 170 146 140 150 152 183 313 343 332 320 318 316 313 308 302
128 119 111 100 93 99 100 112 123 119 115 112 109 100 96 102 105 101 100 110 119 131 136 125 117 175 189 154 137 116 136 148 151 182 242 323 338 328 322 323 323 315 305 305 303
136 128 118 108 102 101 102 109 114 122 124 118 116 105 105 100 104 102 99 101 107 114 114 118 79 134 144 127 115 66 130 142 148 291 300 317 312 313 316 316 314 302 298 301 301
145 135 123 112 109 106 104 109 114 115 119 119 114 118 102 127 103 104 100 98 96 104 107 131 115 73 103 97 75 94 100 85 27 327 320 317 311 310 317 313 306 306 312 310 314
148 142 134 122 116 111 111 120 117 117 122 117 110 112 75 116 111 107 109 97 88 90 110 120 120 101 98 91 88 72 33 21 325 330 319 318 320 316 320 317 318 322 319 319 319
151 151 141 133 125 117 122 120 118 115 114 117 110 97 113 110 101 101 96 95 90 89 88 101 89 88 88 84 69 43 35 349 336 337 330 329 305 320 318 314 316 314 313 311 312
153 151 142 138 126 125 121 116 114 112 113 109 102 86 101 104 102 99 100 87 85 89 88 81 77 75 89 34 38 344 358 249 317 315 316 324 304 311 309 307 305 303 303 310 318
154 149 144 139 130 123 121 115 113 113 114 111 101 99 111 107 104 105 99 84 81 86 79 74 60 44 58 272 344 343 332 339 290 321 317 303 290 297 297 299 295 298 304 314 317
157 153 145 142 135 131 128 116 111 117 114 100 101 112 113 104 109 108 104 84 78 71 73 53 176 201 332 324 295 318 337 321 294 304 307 304 291 299 306 300 298 301 305 310 313
155 153 147 146 143 140 136 113 111 110 95 91 98 102 94 96 103 105 84 74 88 44 74 31 48 32 7 1 341 353 330 308 307 310 310 303 307 301 311 299 301 304 305 311 313
153 152 147 142 135 134 123 114 114 105 79 76 83 91 90 88 95 91 72 66 87 108 195 227 318 11 23 16 355 304 300 308 307 306 316 314 293 277 290 291 300 305 313 318 318
152 146 144 140 136 131 121 120 112 100 84 44 50 67 80 81 74 69 55 56 76 17 4 56 38 20 24 358 356 345 309 314 319 309 313 315 305 271 280 293 307 316 314 318 319
152 150 148 143 138 135 127 120 130 121 172 9 50 71 65 65 69 52 41 37 35 34 35 323 356 8 8 355 356 341 329 329 329 303 304 281 264 254 275 299 323 281 302 314 324
154 152 151 143 132 126 130 127 127 90 96 72 89 84 73 59 53 52 41 33 29 36 38 6 2 7 3 358 7 351 352 325 304 325 254 239 266 242 275 276 252 279 308 319 325
152 153 151 142 125 115 112 117 87 6 138 125 96 79 72 36 28 26 39 42 36 52 0 352 359 6 1 358 0 4 12 31 291 211 237 291 273 256 259 275 293 304 313 325 332
155 156 156 145 129 103 95 97 47 121 175 142 101 71 51 20 29 26 51 359 27 18 43 331 305 349 352 357 355 15 30 29 308 320 292 303 261 262 283 296 305 316 325 328 337
158 159 163 165 142 124 112 42 148 173 144 128 82 64 6 29 20 24 13 16 16 14 19 7 268 335 347 351 8 359 355 337 272 289 273 230 315 285 295 307 318 322 321 335 337
155 154 153 152 145 122 96 99 131 137 138 132 77 128 65 3 47 40 2 359 2 359 4 359 318 329 344 346 356 359 360 346 334 318 303 301 297 297 310 311 314 318 330 334 334
159 156 152 151 142 128 127 131 133 132 126 95 112 103 63 22 31 31 1 355 350 349 348 353 340 324 330 338 328 337 346 325 303 251 273 301 280 305 310 311 315 325 331 333 335
169 166 163 156 148 122 117 133 134 121 107 101 94 85 57 35 55 39 9 355 348 343 346 350 326 312 281 301 312 321 318 327 271 308 260 278 284 304 317 321 322 324 329 332 332
176 174 172 168 167 145 132 132 131 133 130 94 98 73 60 48 59 19 4 356 347 343 336 340 333 330 296 316 322 319 317 314 297 273 277 256 302 323 331 318 311 320 323 328 330
181 173 179 181 185 168 157 157 165 172 148 90 90 74 63 62 33 15 0 347 341 332 326 317 316 289 272 292 302 300 301 307 298 249 266 278 296 316 314 301 306 311 321 328 331
190 188 187 195 190 185 183 177 183 182 181 103 88 65 55 48 26 2 354 339 333 331 322 322 308 311 311 313 304 308 307 296 283 291 270 303 301 297 299 303 307 317 325 328 333
198 197 196 187 199 194 196 193 196 203 201 218 100 41 27 21 10 351 345 338 330 327 322 319 302 315 318 325 315 313 311 311 307 301 292 298 303 303 306 310 314 322 325 332 337
202 204 205 208 199 203 207 208 213 225 227 234 302 328 342 348 351 344 334 326 320 320 323 317 314 315 303 309 314 303 318 316 311 318 307 300 305 304 310 315 317 325 332 338 339